Location: Garshuizen
(53.3675°N, 6.7248°E)
Time: 11:44:18
(UTC+00:00)

Cosmos 1634 Rocket - Pass Details

Date: 15 May 2026
Orbit: 960 x 990 km, 82.9° (Epoch: 6 June)

Event Time Altitude Azimuth Distance (km) Brightness Sun altitude
Exits shadow 22:22:33 21° 189° (S) 2,015 5.1 -16.2°
Maximum altitude 22:26:53 90° 252° (WSW) 973 4.0 -16.3°
Drops below altitude 10° 22:33:09 10° 11° (N) 2,725 7.4 -16.6°
Sets 22:35:40 0° 11° (NNE) 3,681 8.2 -16.7°
